Regional Weather Roundup
Issued by NWS

Home | Current Version | Previous Version | Graphics & Text | Print | Product List | Glossary On
Versions: 1 2 3 4 5 6 7 8 9 10 11 12 13 14 15 16 17 18 19 20 21 22 23 24 25 26 27 28 29 30 31 32 33 34 35 36 37 38 39 40 41 42 43 44 45 46 47 48 49 50
000
ASUS45 KPSR 172200
RWRAZ

PRELIMINARY ARIZONA REGIONAL HOURLY WEATHER ROUNDUP
NATIONAL WEATHER SERVICE PHOENIX AZ
300 PM MST WED SEP 17 2014

NOTE: FAIR INDICATES FEW OR NO CLOUDS BELOW 12,000 FEET WITH NO
SIGNIFICANT WEATHER AND/OR OBSTRUCTIONS TO VISIBILITY.

AZZ001>003-036-172300-
NORTHWEST ARIZONA

CITY           SKY/WX    TMP DP  RH WIND       PRES   REMARKS
KINGMAN        CLOUDY    81  60  48 S9        29.94S
$$

AZZ004>008-015-016-018-172300-
NORTH CENTRAL ARIZONA

CITY           SKY/WX    TMP DP  RH WIND       PRES   REMARKS
GRAND CANYON   MOSUNNY   72  47  40 E14G23    30.15F
PRESCOTT       PTSUNNY   80  56  43 NE9       30.02F
FLAGSTAFF      MOSUNNY   64  56  75 VRB6      30.18F
PAYSON         CLOUDY    66  63  88 N10       30.07F
PAGE           MOSUNNY   87  51  28 W3        29.96F
$$

AZZ009>014-017-172300-
NORTHEAST ARIZONA

CITY           SKY/WX    TMP DP  RH WIND       PRES   REMARKS
WINSLOW        NOT AVBL
SAINT JOHNS    CLOUDY    73  56  54 E7        30.08F
WINDOW ROCK    CLOUDY    73  46  38 VRB7      30.17
SHOW LOW       LGT RAIN  61  57  88 SE3       30.16F
$$

AZZ023-172300-
GREATER PHOENIX AREA

CITY           SKY/WX    TMP DP  RH WIND       PRES   REMARKS
PHOENIX        CLOUDY    84  71  65 VRB3      29.76F
GLENDALE       PTSUNNY   82  70  65 CALM      29.79F
DEER VALLEY    PTSUNNY   87  65  47 E6        29.78F
SCOTTSDALE     PTSUNNY   83  69  62 CALM      29.80F
MESA-GATEWAY   PTSUNNY   84  70  61 N8        29.80S
CHANDLER       PTSUNNY   81  73  78 NW8       29.78F
$$

AZZ027-028-172300-
SOUTHWEST MARICOPA COUNTY AND PINAL COUNTY

CITY           SKY/WX    TMP DP  RH WIND       PRES   REMARKS
CASA GRANDE    CLOUDY    84  64  51 E8        29.78F
GILA BEND      PTCLDY    91  66  43 E14       29.74F
$$

AZZ503-504-507>509-172300-
SOUTHEAST ARIZONA

CITY           SKY/WX    TMP DP  RH WIND       PRES   REMARKS
TUCSON         CLOUDY    82  66  58 SE15      29.84F
NOGALES        HVY RAIN  65  64  97 S5        29.90F FOG
SIERRA VISTA   LGT RAIN  66  64  94 E16G23    29.97F
SAFFORD        CLOUDY    78  67  68 SW5       29.90F
$$

AZZ020-021-025-026-031-172300-
SOUTHWEST ARIZONA

CITY           SKY/WX    TMP DP  RH WIND       PRES   REMARKS
YUMA           PTSUNNY   96  64  34 E6        29.67F
$$

CAZ031-033-041-043-047-048-061-172300-
SOUTHERN CALIFORNIA

CITY           SKY/WX    TMP DP  RH WIND       PRES   REMARKS
DOWNTOWN L.A.  SUNNY     90  55  30 W8        29.72F
L.A. AIRPORT   MOSUNNY   81  57  43 W12       29.74S
SAN DIEGO      MOSUNNY   83  67  58 NW14      29.73F
BURBANK        SUNNY     94  55  26 S13       29.73F
ONTARIO        MOSUNNY   98  59  27 SW16G26   29.72F
RIVERSIDE      SUNNY     97  60  29 W16G26    29.71F
PALM SPRINGS   MOSUNNY  102  61  25 E9        29.69F HX 103
EL CENTRO NAS  MOSUNNY   98  64  32 SE6       29.66F HX 100
IMPERIAL       SUNNY    100  66  32 VRB5      29.65F HX 104
BLYTHE         MOSUNNY   97  64  33 VRB5      29.70F
$$

NVZ020-UTZ003-172300-
SOUTHERN NEVADA-UTAH

CITY           SKY/WX    TMP DP  RH WIND       PRES   REMARKS
LAS VEGAS      NOT AVBL
SALT LAKE CITY MOSUNNY   94  33  11 NW10      29.90F
$$

NMZ009-TXZ055-172300-
NEW MEXICO-WEST TEXAS

CITY           SKY/WX    TMP DP  RH WIND       PRES   REMARKS
ALBUQUERQUE    CLOUDY    68  59  73 N8        30.13F
EL PASO        PTSUNNY   83  62  49 VRB5      29.96F
$$


........................KEY........................
SKY/WX - SKY CONDITION/WEATHER
TMP    - TEMPERATURE IN FAHRENHEIT
DP     - DEW POINT IN FAHRENHEIT
RH     - RELATIVE HUMIDITY IN PERCENT
WIND   - DIRECTION AND SPEED IN MILES PER HOUR (MPH)
VRB    - VARIABLE WIND DIRECTION
PRES   - MEAN SEA LEVEL PRESSURE IN INCHES OF MERCURY
         F - FALLING PRESSURE   R - RISING PRESSURE
         S - STEADY PRESSURE
VSB    - VISIBILITY IN MILES
HX     - HEAT INDEX IN FAHRENHEIT
WCI    - WIND CHILL INDEX IN FAHRENHEIT
TC     - TEMPERATURE IN CELSIUS WHICH IS ALSO KNOWN AS
         TEMPERATURE IN CENTIGRADE
AFB    - AIR FORCE BASE
         LUKE AFB IS LUKE AIR FORCE BASE
         DAVIS-MONTHAN IS DAVIS-MONTHAN AIR FORCE BASE
NAS    - NAVAL AIR STATION
         EL CENTRO NAS IS EL CENTRO NAVAL AIR STATION
N/A    - NOT AVAILABLE


USA.gov is the U.S. government's official web portal to all federal, state and local government web resources and services.